Weather History for KCRP - September, 2012

Change the Weather History Date:

Friday, September 14, 2012

  Actual Average Record
Temperature  
Mean Temperature 81 °F 81 °F  
Max Temperature 90 °F 90 °F 98 °F (1993)
Min Temperature 72 °F 73 °F 62 °F (1945)
Degree Days  
Heating Degree Days 0 0  
Month to date heating degree days 0 0  
Since 1 July heating degree days 0 0  
Cooling Degree Days 16 16  
Month to date cooling degree days 303 247  
Year to date cooling degree days 3534 2808  
Growing Degree Days 32 (Base 50)    
Moisture  
Dew Point 71 °F    
Average Humidity 73    
Maximum Humidity 91    
Minimum Humidity 55    
Precipitation  
Precipitation 0.02 in 0.17 in 4.41 in (1910)
Month to date precipitation 0.58 2.50  
Year to date precipitation 15.00 21.84  
Snow  
Snow 0.00 in - - ()
Month to date snowfall 0.0  
Since 1 July snowfall 0.0  
Since 1 September snowfall 0.0  
Snow Depth 0.00 in    
Sea Level Pressure  
Sea Level Pressure 30.09 in    
Wind  
Wind Speed 9 mph (NNE)    
Max Wind Speed 23 mph    
Max Gust Speed 26 mph    
Visibility 10 miles    
Events Rain , Thunderstorm    
T = Trace of Precipitation, MM = Missing Value Source: NWS Daily Summary

Daily Weather History Graph

Daily Weather History Graph

Search for Another Location

Airport or City:

Trip Planner

Search our weather history database for the weather conditions in past years. The results will help you decide how hot, cold, wet, or windy it might be!

Date:

Astronomy

Sep. 14, 2012 Rise Set
Actual Time 7:15 AM CDT 7:35 PM CDT
Civil Twilight 6:51 AM CDT 7:58 PM CDT
Nautical Twilight 6:24 AM CDT 8:26 PM CDT
Astronomical Twilight 5:56 AM CDT 8:53 PM CDT
Moon 5:45 AM CDT (9/14) 6:31 PM CDT (9/14)
Length of Visible Light 13h 07m
Length of Day
12h 20m
Waning Crescent, 2% of the Moon is Illuminated
Sep 14
Waning Crescent
Sep 15
New
Sep 22
First Quarter
Sep 29
Full
Oct 8
Last Quarter

Hourly Weather History & Observations

Time (CDT) Temp. Heat Index Dew Point Humidity Pressure Visibility Wind Dir Wind Speed Gust Speed Precip Events Conditions
12:14 AM 82.4 °F 89.5 °F 75.2 °F 79% 30.08 in 10.0 mi East 11.5 mph 19.6 mph 0.00 in Rain Light Rain
12:29 AM 78.8 °F - 69.8 °F 74% 30.08 in 10.0 mi ENE 8.1 mph - 0.01 in Rain Light Rain
12:51 AM 80.1 °F 84.2 °F 73.0 °F 79% 30.07 in 10.0 mi East 5.8 mph - 0.01 in   Partly Cloudy
1:51 AM 81.0 °F 86.7 °F 75.0 °F 82% 30.07 in 10.0 mi East 8.1 mph - N/A   Partly Cloudy
2:51 AM 79.0 °F - 75.0 °F 88% 30.07 in 10.0 mi ESE 5.8 mph - N/A   Partly Cloudy
3:51 AM 79.0 °F - 73.9 °F 84% 30.04 in 10.0 mi ENE 4.6 mph - N/A   Partly Cloudy
4:51 AM 78.1 °F - 73.0 °F 84% 30.04 in 10.0 mi NNW 9.2 mph - N/A   Mostly Cloudy
5:10 AM 78.8 °F - 73.4 °F 83% 30.04 in 10.0 mi NNE 8.1 mph - N/A   Mostly Cloudy
5:30 AM 78.8 °F - 73.4 °F 83% 30.05 in 10.0 mi NNW 12.7 mph - N/A   Mostly Cloudy
5:51 AM 77.0 °F - 73.0 °F 88% 30.05 in 10.0 mi NNW 18.4 mph 26.5 mph N/A   Mostly Cloudy
6:13 AM 73.4 °F - 69.8 °F 88% 30.07 in 10.0 mi North 18.4 mph - N/A   Mostly Cloudy
6:51 AM 73.0 °F - 68.0 °F 84% 30.07 in 10.0 mi North 18.4 mph - 0.00 in Rain Light Rain
7:17 AM 73.4 °F - 68.0 °F 83% 30.09 in 10.0 mi NNE 16.1 mph - 0.00 in Thunderstorm Thunderstorm
7:51 AM 73.9 °F - 68.0 °F 82% 30.09 in 10.0 mi NNE 15.0 mph - 0.00 in Thunderstorm Thunderstorm
8:21 AM 73.4 °F - 69.8 °F 88% 30.11 in 10.0 mi NNE 10.4 mph - N/A   Mostly Cloudy
8:51 AM 73.9 °F - 68.0 °F 82% 30.11 in 10.0 mi NE 15.0 mph - 0.00 in Rain Light Rain
9:51 AM 75.0 °F - 69.1 °F 82% 30.13 in 10.0 mi North 6.9 mph - 0.00 in Rain Light Rain
10:51 AM 75.9 °F - 69.1 °F 79% 30.14 in 10.0 mi NNW 5.8 mph - 0.01 in Rain Light Rain
11:51 AM 77.0 °F - 69.1 °F 76% 30.15 in 10.0 mi Calm Calm - 0.01 in   Mostly Cloudy
12:51 PM 79.0 °F - 70.0 °F 74% 30.13 in 10.0 mi Calm Calm - 0.00 in Rain Light Rain
1:51 PM 80.1 °F 83.6 °F 71.1 °F 74% 30.11 in 10.0 mi NE 5.8 mph - 0.00 in Rain Light Rain
2:51 PM 82.0 °F 86.7 °F 72.0 °F 71% 30.08 in 10.0 mi ENE 3.5 mph - 0.00 in   Mostly Cloudy
3:51 PM 88.0 °F 92.9 °F 70.0 °F 55% 30.05 in 10.0 mi ENE 8.1 mph - N/A   Scattered Clouds
4:51 PM 89.1 °F 96.0 °F 72.0 °F 57% 30.04 in 10.0 mi NE 8.1 mph - N/A   Scattered Clouds
5:51 PM 84.9 °F 91.4 °F 73.0 °F 67% 30.06 in 10.0 mi NNE 18.4 mph - N/A   Mostly Cloudy
6:07 PM 80.6 °F 84.6 °F 71.6 °F 74% 30.06 in 10.0 mi North 16.1 mph - N/A   Scattered Clouds
6:51 PM 80.1 °F 83.8 °F 72.0 °F 76% 30.07 in 10.0 mi North 12.7 mph - N/A   Scattered Clouds
7:51 PM 78.1 °F - 72.0 °F 81% 30.07 in 10.0 mi North 10.4 mph - N/A   Scattered Clouds
8:51 PM 78.1 °F - 72.0 °F 81% 30.09 in 10.0 mi North 9.2 mph - N/A   Partly Cloudy
9:51 PM 79.0 °F - 72.0 °F 79% 30.11 in 10.0 mi NE 5.8 mph - N/A   Partly Cloudy
10:51 PM 78.1 °F - 73.0 °F 84% 30.12 in 10.0 mi NNE 9.2 mph - N/A   Scattered Clouds
11:03 PM 78.8 °F - 73.4 °F 83% 30.13 in 10.0 mi NNE 9.2 mph - N/A   Mostly Cloudy
11:10 PM 78.8 °F - 73.4 °F 83% 30.13 in 10.0 mi NNE 10.4 mph - N/A   Mostly Cloudy
11:27 PM 77.0 °F - 71.6 °F 83% 30.12 in 10.0 mi NNE 11.5 mph - N/A   Scattered Clouds
11:51 PM 75.9 °F - 71.1 °F 85% 30.12 in 10.0 mi North 11.5 mph - N/A   Partly Cloudy